Powrót do katalogu

COSMOS 2251 DEB

AktywnyVLEO
NORAD 34036·DEBRIS·🇷🇺 Russia

Wystrzelony Jun 16, 1993 z Plesetsk Cosmodrome

Loading…

Następne Przeloty (najbliższe 24 godziny)

TLE

ŚwieżeSource: Space-Track

Epoka: Sep 14, 2026, 05:58 UTC

1 34036U 93036HX  26257.24924982  .00060248  00000-0  23381-2 0  9998
2 34036  73.9996 300.1060 0016414 296.4833  63.4683 15.25685221927276

Śledź COSMOS 2251 DEB w czasie rzeczywistym z AllMySat

Download on the App Store